Location: Newark
(44.6768°N, 22.5302°E)
Time: 04:36:22
(UTC+00:00)

ISS - Visible Passes

Search period start: 25 January 2022 00:00
Search period end: 04 February 2022 00:00
Orbit: 413 x 422 km, 51.6° (Epoch: 25 January)

Date Brightness Start Highest point End Pass type
(mag) Time Alt. Az. Time Alt. Az. Time Alt. Az.
25 Jan -2.4 16:29:40 10° WNW 16:32:39 29° NNW 16:34:49 15° NE visible
25 Jan -0.7 18:07:15 10° NW 18:07:45 13° NW 18:07:45 13° NW visible
26 Jan -2.1 17:19:06 10° NW 17:21:41 23° N 17:21:41 23° N visible
27 Jan -2.2 16:30:51 10° WNW 16:33:39 24° N 16:35:36 15° NE visible
27 Jan -0.8 18:07:59 10° NW 18:08:32 14° NW 18:08:32 14° NW visible
28 Jan -2.3 17:19:55 10° NW 17:22:28 27° N 17:22:28 27° N visible
29 Jan -2.3 16:31:48 10° NW 16:34:37 25° N 16:36:26 16° NE visible
29 Jan -1.0 18:08:32 10° NW 18:09:22 16° NW 18:09:22 16° NW visible
30 Jan -3.0 17:20:30 10° NW 17:23:23 40° N 17:23:23 40° N visible
31 Jan -2.8 16:32:25 10° NW 16:35:29 32° NNE 16:37:28 17° ENE visible
31 Jan -1.2 18:09:07 10° WNW 18:10:25 21° WNW 18:10:25 21° WNW visible
01 Feb -4.0 17:20:59 10° WNW 17:24:20 85° NNE 17:24:35 74° ESE visible
02 Feb -3.6 16:32:54 10° NW 16:36:11 57° NNE 16:38:53 14° ESE visible
02 Feb -1.2 18:10:01 10° W 18:11:50 21° WSW 18:11:50 21° WSW visible
03 Feb -2.5 17:21:37 10° WNW 17:24:44 38° SW 17:26:19 23° SSE visible
